Showing default

TIANLIAN-2 05, 63662

Orbit data source: Space-Track

TIANLIAN-2 05, 63662 is a payload satellite owned by CAST (CN) in GEO that was launched on Sun, 27 Apr 2025 UTC via a CHANG ZHENG 3B launch vehicle from the Xichang Space Center, China (XSC). Payload-class satellites include a variety of spacecraft equipped with specific instruments for various scientific and technological missions. These include communications satellites like Starlink; space stations such as the ISS; scientific satellites like the Hubble; Earth observation satellites from companies like Planet Labs, Umbra, and HawkEye 360; GPS; miniature CubeSats for education and research; and military/defense satellites.

Not visible in the next 10 days
Identifier
63662, 2025-084A
Orbit
GEO
Country
Flag of CNCN / PRC
Related business
Manufacturer
CAST
Mission
Operational Civil Communications
Bus & Motor
DFH-4, FY-25
Mass
~5,000 kg wet, ~2,000 kg dry
Launch date (UTC)
2025-04-27 (8 months ago)
Launch vehicle
CHANG ZHENG 3B
Launch site
Xichang Space Center, China (XSC)
Object type
Payload
Rocket body
Debris
Shape & HBR
Box + 2 Pan + 1 Dish, 10.0 m
Radar Cross Section
40.604 m², Large (>1 m²)

Expand to show TLE details & history
Last TLE update: 15 hours ago

TLE from 15 hours ago
0 TIANLIAN-2 05
1 63662U 25084A   25352.55794131  .00000154  00000-0  00000-0 0  9994
2 63662   4.9092 281.8316 0001868  53.5588 333.2945  1.00273875  2571
Epoch: 2025-12-18T13:23Z
TLE epoch observation values (Epoch: 2025-12-18T13:23:26.129Z)
Latitude
2.20344°
Longitude
20.29326°
Altitude
35,778.239 km
Speed
3.075 km/s
True Right ascension
20h 34m 15s
True Declination
2° 12' 04"
Sunlit
Object was in daylight at epoch
Visualization orbit readout
Latitude
Unknown
Longitude
Unknown
Altitude
Unknown
Speed
Unknown
Apparent Right ascension
Unknown
Apparent Declination
Unknown
Sunlit
N/A
Visualization observer readout
Local Sidereal Time
03:24:38
Azimuth
Unknown
Elevation
Unknown
Doppler factor
Unknown
Orbital elements
Apogee altitude
35,794.944 km
Perigee altitude
35,779.192 km
Semi-major axis
42,165.205 km
Eccentricity
0.00019
Inclination
4.9092°
RAAN
281.8316°
Arg. of periapsis
53.5588°
True anomaly
333.28488°
Mean anomaly
333.2945°
Eccentric anomaly
333.28969°
Mean motion
0.25068 °/min
Orbital period
1,436.12 mins
BSTAR
0
Loading maneuver chart data...
Computing Atmospheric mass density...
Loading historical data...
Loading historical data...
Loading historical data...
Loading historical data...
Loading historical data...
Loading historical data...
Loading historical data...
Other satellites on launch #84 in the year 2025 (2025-04-27 UTC)

Documentation

Showing up to 5 results
|